FW5107 Weather Reports


time (UTC)temp
C
wind
direction
speed
KPH
gust
KPH
rain 1hr
cm
rain 24hr
cm
rain mn
cm
humidity
%
barometer
mb
20260505041508 9 255 14.5 29.0 0.00 1.37 0.00 74 1007.1
20260505040005 9 235 14.5 25.7 0.00 1.42 0.00 73 1006.8
20260505034502 9 224 14.5 27.4 0.00 1.42 0.00 73 1006.6
20260505033100 9 231 14.5 29.0 0.00 1.42 0.00 72 1006.4
20260505031558 9 228 14.5 24.1 0.00 1.42 0.00 72 1006.3
20260505024608 10 222 14.5 24.1 0.00 1.50 1.42 71 1005.9
20260505023051 10 230 16.1 29.0 0.00 1.50 1.42 70 1005.8
20260505021550 10 228 14.5 29.0 0.00 1.50 1.42 69 1005.6
20260505020103 10 253 14.5 27.4 0.00 1.50 1.42 68 1005.2
20260505014548 10 219 11.3 29.0 0.00 1.52 1.42 68 1005.1
20260505013146 10 233 12.9 29.0 0.00 1.52 1.42 69 1004.9
20260505011547 10 217 9.7 19.3 0.00 1.52 1.42 68 1005.0
20260505010104 10 239 8.0 30.6 0.00 1.63 1.42 67 1005.0
20260505004559 11 210 12.9 27.4 0.00 1.63 1.42 66 1004.8
20260505003045 11 259 17.7 33.8 0.00 1.63 1.42 65 1004.9
20260505001543 10 211 14.5 24.1 0.00 1.63 1.42 63 1004.8
20260505000040 10 209 17.7 27.4 0.00 1.75 1.42 61 1004.5
20260504234538 10 231 12.9 25.7 0.00 1.75 1.42 64 1004.5
20260504233037 10 236 16.1 27.4 0.00 1.75 1.42 63 1004.1
20260504231540 10 261 19.3 45.1 0.00 1.75 1.42 62 1004.0
20260504230037 11 254 27.4 49.9 0.00 2.21 1.42 59 1003.6
20260504224535 11 222 22.5 38.6 0.00 2.21 1.42 44 1003.5
20260504223031 11 242 17.7 40.2 0.00 2.21 1.42 48 1003.2
20260504221537 11 229 22.5 38.6 0.00 2.21 1.42 48 1002.9
20260504220028 11 226 14.5 29.0 0.00 2.62 1.42 49 1002.9
20260504214528 12 236 14.5 35.4 0.00 2.62 1.42 48 1002.7
20260504213036 12 210 16.1 32.2 0.00 2.62 1.42 47 1002.6
20260504211529 12 263 16.1 40.2 0.00 2.62 1.42 51 1002.5
20260504210020 12 218 17.7 37.0 0.00 2.82 1.42 51 1002.2
20260504204517 12 254 27.4 38.6 0.00 2.82 1.42 51 1002.0
20260504203016 12 252 19.3 38.6 0.00 2.82 1.42 53 1002.0
20260504201514 12 239 22.5 35.4 0.00 2.82 1.42 55 1001.9
20260504200011 12 242 22.5 46.7 0.00 2.92 1.42 56 1001.5
20260504194515 11 251 25.7 43.5 0.00 2.92 1.42 58 1001.4
20260504193009 11 300 25.7 43.5 0.00 2.92 1.42 58 1001.1
20260504191505 12 251 24.1 37.0 0.00 2.92 1.42 57 1000.7
20260504190003 11 285 30.6 41.8 0.00 2.92 1.42 56 1000.5
20260504184506 11 334 24.1 45.1 0.00 2.92 1.42 59 1000.5
20260504183100 11 268 25.7 56.3 0.00 2.92 1.42 60 1000.5
20260504181604 11 282 19.3 38.6 0.00 2.92 1.42 63 1000.2
20260504180056 11 258 24.1 53.1 0.00 2.92 1.42 63 1000.1
20260504174556 11 234 29.0 54.7 0.00 2.97 1.42 64 999.9
20260504173052 10 270 29.0 48.3 0.00 2.97 1.42 69 999.8
20260504171550 10 276 33.8 56.3 0.00 2.97 1.42 72 999.8
20260504081509 2 244 38.6 66.0 0.20 2.21 0.66 93 982.0
20260504044533 3 305 9.7 22.5 0.05 1.65 0.13 95 975.6
20260504043025 3 284 11.3 17.7 0.05 1.65 0.10 95 975.6